Tracking 30923 objects as of 1-Jul-2025
HD Live streaming from Space Station
objects crossing your sky now

TIANHUI 2-02B

Track TIANHUI 2-02B now!
10-day predictions


NORAD ID: 49072
Int'l Code: 2021-074B
Perigee: 521.7 km
Apogee: 524.0 km
Inclination: 97.5 °
Period: 94.9 minutes
Semi major axis: 6893 km
RCS: Unknown
Launch date: August 18, 2021
Source: People's Republic of China (PRC)
Launch site: Taiyaun Space Center, China (TSC)
Your satellite tracking list
Your tracking list is empty




NASA's NSSDC Master Catalog

Two Line Element Set (TLE):
1 49072U 21074B   25181.69504675  .00001279  00000-0  68612-4 0  9991
2 49072  97.4737 184.6777 0001642  98.9598 261.1821 15.16744378213993
Source of the keplerian elements: AFSPC